[[{"header":{"parameterUnit":"m.s-1","parameterCategory":1,"la1":30.2991,"la2":30.254,"lo1":-89.0895,"lo2":-89.0444,"dy":0.0017,"dx":0.0017,"nx":28,"ny":28,"refTime":"2025-04-16T09:00:00:Z","depth":0,"parameterNumber":2,"parameterNumberName":"U-component_of_WINDS"},"data":[0,0,0,0,0,0,0,0,0,0,0,0,0,0,0,0,0,0,0,0,0,0,0,0,0,0,0,0,0,0,0,0,0,0,0,0,0,0,0,0,0,0,0,0,0,0,0,0,0,0,0,0,0,0,0,0,0,0,-1.9513,-1.9514,0,-1.9652,-1.9654,-1.9655,-1.9698,-1.9697,-1.9696,-1.9696,-1.9841,-1.9845,-1.9849,0,0,0,0,0,0,0,0,0,0,0,0,0,-1.9287,-1.9291,-1.9513,-1.9515,-1.9516,-1.9652,-1.9654,-1.9656,-1.9698,-1.9697,-1.9696,-1.9696,-1.9839,-1.9844,-1.985,0,0,0,0,0,0,0,0,0,0,0,0,0,-1.9401,-1.9292,-1.9512,-1.9554,-1.9559,-1.9651,-1.9654,-1.9656,-1.9698,-1.9697,-1.9696,-1.9695,-1.9837,-1.9844,-1.985,-1.9913,0,0,-1.9871,-1.9874,0,0,0,0,0,0,0,0,-1.9395,-1.941,-1.9546,-1.9551,-1.9557,-1.9656,-1.9627,-1.9742,-1.9698,-1.9645,-1.9696,-1.9695,-1.978,-1.9792,-1.982,-1.992,-1.9926,-1.9872,-1.9876,-1.9879,-1.9881,0,0,0,0,0,0,0,-1.9387,-1.9404,-1.9568,-1.9548,-1.9555,-1.9566,-1.9581,-1.9649,-1.9717,-1.965,-1.9653,-1.9669,-1.9783,-1.9813,-1.9824,-1.9928,-1.9871,-1.9877,-1.9882,-1.9884,-2.0086,-2.0088,0,0,0,0,0,0,-1.9371,-1.9397,-1.9564,-1.9572,-1.9472,-1.9571,-1.9588,-1.9626,-1.9716,-1.9729,-1.967,-1.967,-1.9802,-1.9816,-1.9829,-1.9908,-1.9879,-1.9885,-1.9889,-2.0085,-2.0087,-2.0088,0,0,0,0,0,0,-1.9366,-1.9386,-1.9558,-1.9486,-1.9508,-1.9576,-1.9618,-1.9629,-1.9659,-1.9731,-1.9744,-1.9688,-1.9802,-1.982,-1.9892,-1.9914,-1.9888,-1.9894,-2.0083,-2.0085,-2.0087,-2.0067,0,0,0,0,0,0,-1.936,-1.9384,-1.9407,-1.9486,-1.9512,-1.9617,-1.9619,-1.9632,-1.9671,-1.9673,-1.9752,-1.9764,-1.9803,-1.9881,-1.9898,-1.9923,-1.9899,-2.0082,-2.0084,-2.0087,-2.0066,-2.0068,-2.0069,0,0,0,0,0,-1.9351,-1.9397,-1.9408,-1.9428,-1.9543,-1.9618,-1.9634,-1.9676,-1.9672,-1.9697,-1.9743,-1.9762,-1.9909,-1.9888,-1.9908,-1.9934,-2.008,-2.0084,-2.0086,-2.0065,-2.0067,-2.0069,0,0,0,0,0,0,-1.932,-1.9408,-1.9422,-1.9493,-1.9548,-1.9625,-1.9658,-1.9678,-1.9735,-1.9735,-1.9787,-1.9804,-1.9873,-1.9911,-1.9887,-2.0,-1.9995,-2.0002,-1.9972,-1.9975,-1.9977,-1.9966,-1.9905,0,0,0,0,0,-1.9321,-1.9374,-1.9448,-1.9504,-1.9531,-1.959,-1.9624,-1.9653,-1.9712,-1.9735,-1.9787,-1.9844,-1.9904,-1.9942,-2.0,-2.0072,-2.009,-2.01,-2.0101,-2.0103,-2.0108,-2.0149,-2.0154,-2.0098,-2.0098,-2.0098,0,0,-1.9325,-1.9379,-1.941,-1.95,-1.9545,-1.96,-1.9609,-1.9667,-1.9708,-1.9744,-1.9815,-1.9855,-1.9923,-1.9995,-2.0029,-2.0029,-2.0128,-2.0106,-2.0107,-2.0112,-2.0153,-2.0158,-2.0163,-2.01,-2.0099,-2.0099,0,0,-1.9359,-1.9405,-1.9457,-1.9502,-1.9571,-1.961,-1.9622,-1.9697,-1.9725,-1.9797,-1.9825,-1.9876,-1.9977,-2.0024,-2.0061,-2.0113,-2.0132,-2.0131,-2.014,-2.018,-2.0184,-2.0188,-2.0207,-2.0213,-2.0136,-2.0136,-2.0136,0,-1.9354,-1.9437,-1.9481,-1.9537,-1.9576,-1.9611,-1.9664,-1.9707,-1.9792,-1.9818,-1.9816,-1.9944,-1.9992,-2.0075,-2.0088,-2.0117,-2.0133,-2.0122,-2.018,-2.0185,-2.0189,-2.0208,-2.0214,-2.0135,-2.0135,-2.0135,-2.0135,0,-1.9428,-1.9485,-1.9519,-1.9599,-1.9642,-1.9696,-1.975,-1.9788,-1.9813,-1.9852,-1.9925,-1.9984,-2.0055,-2.0077,-2.0102,-2.0165,-2.0162,-2.017,-2.0166,-2.0193,-2.0211,-2.0219,-2.0134,-2.0135,-2.0135,-2.0135,0,0,-1.9446,-1.955,-1.9561,-1.9598,-1.9677,-1.9722,-1.9779,-1.9848,-1.988,-1.9937,-1.9986,-2.0071,-2.0078,-2.012,-2.0151,-2.0186,-2.0223,-2.0189,-2.0191,-2.0193,-2.0296,-2.029,-2.0297,-2.0237,-2.0238,-2.0239,-2.029,0,-1.949,-1.9591,-1.9633,-1.9715,-1.9768,-1.9802,-1.9852,-1.9906,-1.9944,-1.9996,-2.0039,-2.0098,-2.0103,-2.0129,-2.0164,-2.0211,-2.0245,-2.0208,-2.0283,-2.0285,-2.0265,-2.0307,-2.0301,-2.0346,-2.0298,-2.0299,-2.03,0,-1.9555,-1.9612,-1.9699,-1.9771,-1.9795,-1.9839,-1.9905,-1.9954,-2.0016,-2.0042,-2.0089,-2.0118,-2.0179,-2.0172,-2.0257,-2.0231,-2.0265,-2.0293,-2.0295,-2.0304,-2.0294,-2.0317,-2.0362,-2.0368,-2.0312,-2.0311,-2.031,0,-1.956,-1.9658,-1.9723,-1.9754,-1.9839,-1.9869,-1.9906,-1.9968,-2.0006,-2.0065,-2.0091,-2.0156,-2.0192,-2.0242,-2.0288,-2.0278,-2.037,-2.0366,-2.0393,-2.0392,-2.041,-2.0409,-2.0461,-2.0432,-2.0432,-2.0432,-2.0432,0,-1.9605,-1.9657,-1.9726,-1.9766,-1.9825,-1.9873,-1.9931,-1.9971,-2.0025,-2.0074,-2.0108,-2.0153,-2.0211,-2.0264,-2.0301,-2.0366,-2.0382,-2.0405,-2.0414,-2.0402,-2.0399,-2.0425,-2.0423,-2.0434,-2.0433,-2.0433,-2.0432,0,-1.962,-1.9668,-1.9741,-1.9816,-1.9836,-1.9877,-1.9942,-1.9982,-2.0022,-2.0083,-2.0101,-2.0163,-2.0228,-2.0278,-2.0363,-2.0387,-2.0456,-2.0466,-2.0435,-2.0439,-2.0464,-2.0461,-2.0535,-2.0547,-2.0509,-2.0509,-2.0509,0,-1.9645,-1.9686,-1.9765,-1.9799,-1.9836,-1.9892,-1.9931,-1.998,-2.002,-2.0094,-2.0126,-2.0192,-2.0248,-2.0349,-2.0403,-2.0467,-2.0479,-2.0501,-2.0489,-2.0476,-2.048,-2.0477,-2.0481,-2.0502,-2.0502,-2.0502,-2.0502,0,-1.9685,-1.9707,-1.9762,-1.9826,-1.9871,-1.9924,-1.9978,-2.0005,-2.0063,-2.0106,-2.0172,-2.0215,-2.0301,-2.0366,-2.0437,-2.0476,-2.05,-2.0506,-2.0515,-2.0503,-2.0483,-2.0495,-2.0438,-2.0504,-2.0504,-2.0503,-2.0503,-2.0503,-1.9707,-1.9744,-1.9806,-1.9866,-1.9911,-1.996,-2.0002,-2.0046,-2.0102,-2.0174,-2.02,-2.0267,-2.033,-2.0426,-2.0466,-2.052,-2.0522,-2.0536,-2.054,-2.0542,-2.0541,-2.0474,-2.0533,-2.0533,-2.0533,-2.0533,-2.0533,0,-1.9749,-1.979,-1.9845,-1.9918,-1.9965,-1.9982,-2.0042,-2.0081,-2.014,-2.0195,-2.0249,-2.0324,-2.0388,-2.0447,-2.0514,-2.0546,-2.0558,-2.0562,-2.056,-2.0569,-2.0536,-2.052,-2.0551,-2.0551,-2.0551,-2.0551,-2.0551,-2.0551,-1.9776,-1.9841,-1.987,-1.9957,-1.9999,-2.0064,-2.0097,-2.0143,-2.0187,-2.027,-2.0322,-2.036,-2.0417,-2.0488,-2.0548,-2.0564,-2.0587,-2.0588,-2.0606,-2.0574,-2.0571,-2.0569,-2.0555,-2.0592,-2.0592,-2.0635,-2.0636,-2.0636]},{"header":{"parameterUnit":"m.s-1","parameterCategory":1,"la1":30.2991,"la2":30.254,"lo1":-89.0895,"lo2":-89.0444,"dy":0.0017,"dx":0.0017,"nx":28,"ny":28,"refTime":"2025-04-16T09:00:00:Z","depth":0,"parameterNumber":3,"parameterNumberName":"V-component_of_WINDS"},"data":[0,0,0,0,0,0,0,0,0,0,0,0,0,0,0,0,0,0,0,0,0,0,0,0,0,0,0,0,0,0,0,0,0,0,0,0,0,0,0,0,0,0,0,0,0,0,0,0,0,0,0,0,0,0,0,0,0,0,6.4378,6.4379,0,6.4453,6.4454,6.4455,6.4392,6.4389,6.4387,6.4384,6.4455,6.4459,6.4464,0,0,0,0,0,0,0,0,0,0,0,0,0,6.4173,6.4177,6.4378,6.4379,6.438,6.4453,6.4454,6.4455,6.4392,6.4389,6.4386,6.4383,6.4454,6.4459,6.4464,0,0,0,0,0,0,0,0,0,0,0,0,0,6.4256,6.4178,6.4378,6.4357,6.4356,6.4453,6.4454,6.4455,6.4393,6.4389,6.4385,6.4381,6.4452,6.4458,6.4465,6.4583,0,0,6.4485,6.4487,0,0,0,0,0,0,0,0,6.4252,6.4264,6.4359,6.4359,6.4358,6.4409,6.4408,6.4498,6.4394,6.4379,6.4384,6.4379,6.4443,6.445,6.4472,6.4586,6.4589,6.4485,6.4489,6.4492,6.4494,0,0,0,0,0,0,0,6.4246,6.426,6.4407,6.4361,6.436,6.4342,6.435,6.4424,6.4431,6.438,6.4375,6.4386,6.4441,6.4466,6.4473,6.459,6.4485,6.4491,6.4495,6.4497,6.4802,6.4806,0,0,0,0,0,0,6.4243,6.4256,6.4405,6.4409,6.4294,6.4349,6.4357,6.4396,6.4431,6.4432,6.4389,6.4382,6.4457,6.4466,6.4476,6.4614,6.4492,6.4498,6.4502,6.4798,6.4803,6.4808,0,0,0,0,0,0,6.4239,6.4257,6.4402,6.4332,6.4349,6.4357,6.4401,6.44,6.4425,6.4437,6.4438,6.4413,6.4454,6.4466,6.4556,6.4615,6.4501,6.4507,6.4793,6.4799,6.4805,6.4893,0,0,0,0,0,0,6.4233,6.4256,6.4303,6.4333,6.4353,6.4484,6.4405,6.4404,6.4437,6.4429,6.446,6.4462,6.4452,6.4547,6.4563,6.4622,6.4512,6.4788,6.4796,6.4803,6.4885,6.4902,6.4916,0,0,0,0,0,6.4226,6.4324,6.4306,6.4324,6.4412,6.4488,6.4498,6.4487,6.4442,6.4487,6.4495,6.4461,6.4607,6.4557,6.4574,6.4636,6.4784,6.4794,6.4803,6.4878,6.4898,6.4916,0,0,0,0,0,0,6.4298,6.4328,6.4307,6.4418,6.4451,6.4477,6.4534,6.4509,6.4554,6.4545,6.4527,6.4534,6.4629,6.4642,6.4585,6.4751,6.4688,6.4701,6.4739,6.4759,6.4774,6.4767,6.4517,0,0,0,0,0,6.4328,6.4389,6.441,6.4506,6.4523,6.4526,6.4559,6.4547,6.458,6.4593,6.4607,6.4638,6.469,6.4726,6.4775,6.4887,6.4891,6.4938,6.4954,6.4966,6.4977,6.5034,6.5055,6.4839,6.4839,6.4838,0,0,6.4388,6.4411,6.4451,6.4521,6.4545,6.4606,6.4538,6.4606,6.4651,6.4602,6.4688,6.47,6.4733,6.4834,6.4879,6.4847,6.5038,6.4978,6.4988,6.4992,6.5046,6.5067,6.5085,6.4845,6.4844,6.4843,0,0,6.4528,6.4554,6.4635,6.466,6.4698,6.4699,6.4719,6.4748,6.4754,6.4841,6.4805,6.4856,6.4948,6.4973,6.4997,6.5146,6.5114,6.5162,6.5242,6.5298,6.5315,6.533,6.538,6.5399,6.5173,6.5174,6.5174,0,6.4597,6.4691,6.4679,6.475,6.478,6.4741,6.4821,6.4846,6.4897,6.4918,6.4882,6.4996,6.5015,6.512,6.5156,6.5178,6.5197,6.5157,6.5314,6.5329,6.5343,6.539,6.5409,6.5179,6.5178,6.5178,6.5177,0,6.4772,6.4837,6.4898,6.4949,6.4987,6.5062,6.5059,6.5098,6.5083,6.5087,6.5174,6.5196,6.5248,6.5273,6.5259,6.5375,6.5354,6.5317,6.5252,6.5369,6.5413,6.5431,6.5187,6.5185,6.5183,6.5182,0,0,6.496,6.5004,6.5026,6.5048,6.5086,6.5135,6.5207,6.5259,6.5292,6.5328,6.5386,6.5464,6.543,6.5458,6.5446,6.5495,6.5608,6.5451,6.5452,6.5477,6.5734,6.576,6.5781,6.5588,6.5592,6.5594,6.573,0,6.5099,6.5227,6.5218,6.5337,6.5394,6.5358,6.542,6.5449,6.5454,6.5502,6.5507,6.5562,6.5514,6.553,6.5578,6.5584,6.5658,6.5574,6.5639,6.5641,6.5629,6.5805,6.5833,6.596,6.5748,6.575,6.5753,0,6.528,6.5323,6.5448,6.5476,6.55,6.5556,6.5602,6.565,6.5681,6.5681,6.5712,6.5691,6.5761,6.5697,6.5791,6.5734,6.5759,6.5766,6.5771,6.5774,6.5702,6.581,6.6,6.6018,6.578,6.5778,6.5776,0,6.54,6.549,6.5576,6.5596,6.5632,6.5672,6.5688,6.5715,6.5746,6.5786,6.5805,6.5853,6.5878,6.5914,6.5905,6.586,6.6,6.5936,6.6,6.6,6.6029,6.6027,6.6223,6.605,6.605,6.605,6.6049,0,6.5556,6.5633,6.563,6.5683,6.5767,6.5755,6.5838,6.5849,6.5874,6.5926,6.5897,6.5946,6.5933,6.598,6.5974,6.6051,6.6063,6.6063,6.606,6.6065,6.6064,6.6079,6.6069,6.6055,6.6054,6.6053,6.6052,0,6.5704,6.5706,6.5797,6.5823,6.5831,6.5892,6.5912,6.596,6.5964,6.603,6.6044,6.6048,6.6103,6.6099,6.616,6.6155,6.625,6.6238,6.624,6.6236,6.6299,6.6292,6.651,6.6537,6.6349,6.6351,6.6352,0,6.5802,6.5861,6.5893,6.5927,6.5946,6.6,6.6032,6.6022,6.6056,6.6095,6.6138,6.619,6.6231,6.6319,6.6326,6.6372,6.6359,6.6432,6.6365,6.6367,6.6357,6.6352,6.6357,6.6444,6.6446,6.6448,6.645,0,6.5975,6.5973,6.6022,6.607,6.6109,6.6146,6.618,6.6209,6.6201,6.6241,6.6297,6.6329,6.6391,6.6442,6.6486,6.6499,6.6473,6.6471,6.6487,6.6491,6.6489,6.6488,6.6273,6.6465,6.6464,6.6463,6.6462,6.6461,6.61,6.6149,6.6179,6.6233,6.6258,6.629,6.6336,6.6345,6.6392,6.6443,6.6434,6.6496,6.6522,6.6578,6.6597,6.6643,6.6617,6.6641,6.6647,6.6653,6.6659,6.6484,6.6651,6.6651,6.665,6.665,6.665,0,6.6269,6.6286,6.6336,6.6385,6.6427,6.64,6.6436,6.6471,6.6527,6.6555,6.6597,6.6659,6.6709,6.672,6.6766,6.6801,6.679,6.6813,6.6809,6.6812,6.6682,6.6661,6.6821,6.6821,6.6821,6.6821,6.6821,6.6821,6.6362,6.6443,6.6444,6.6536,6.6552,6.6614,6.6636,6.6665,6.6687,6.6759,6.68,6.6808,6.6828,6.6875,6.6918,6.692,6.6937,6.6965,6.6962,6.6839,6.6822,6.6805,6.6786,6.697,6.697,6.7088,6.7089,6.709]}]]